Regional Weather Roundup
Issued by NWS

Home | Current Version | Previous Version | Text Only | Print | Product List | Glossary Off
Versions: 1 2 3 4 5 6 7 8 9 10 11 12 13 14 15 16 17 18 19 20 21 22 23 24 25 26 27 28 29 30 31 32 33 34 35 36 37 38 39 40 41 42 43 44 45 46 47 48 49 50

000
ASUS45 KCYS 040610
RWRWY

WYOMING REGIONAL WEATHER ROUNDUP
NATIONAL WEATHER SERVICE CHEYENNE WY
1200 AM MDT SAT JUL 04 2015

NOTE:  "FAIR" INDICATES FEW OR NO CLOUDS BELOW 12,000 FEET
WITH NO SIGNIFICANT WEATHER AND/OR OBSTRUCTIONS TO VISIBILITY.

WYZ001-040700-
YELLOWSTONE NATIONAL PARK

CITY           SKY/WX    TMP DP  RH WIND       PRES   REMARKS
LK YELLOWSTONE   N/A     52  41  66 CALM      30.22F
6HR MIN TEMP:  52; 6HR MAX TEMP:  78;

W YELLOWSTONE  NOT AVBL

$$
WYZ002>013-054>058-071-098>099-040700-
NORTHERN WYOMING

CITY           SKY/WX    TMP DP  RH WIND       PRES   REMARKS
JACKSON        FAIR      63  48  59 NE3       30.09F
CODY           FAIR      68  52  56 S6        29.99F
GREYBULL       FAIR      77  50  38 SE5       29.89S
6HR MIN TEMP:  76; 6HR MAX TEMP:  94;

WORLAND        FAIR      67  59  75 S7        29.92S
6HR MIN TEMP:  67; 6HR MAX TEMP:  90; 6HR PCP:  0.01;

SHERIDAN       FAIR      63  57  81 SW7       29.91F
6HR MIN TEMP:  63; 6HR MAX TEMP:  89;

BUFFALO        FAIR      71  55  56 S3        30.00F
6HR MIN TEMP:  69; 6HR MAX TEMP:  84; 6HR PCP: TRACE;

GILLETTE       FAIR      71  58  63 S15       29.96F
6HR MIN TEMP:  71; 6HR MAX TEMP:  85;

HULETT         FAIR      68  55  64 S8        29.98F
NEWCASTLE      FAIR      70  52  52 MISG      30.00F

$$
WYZ014>020-022>026-101>103-040700-
CENTRAL WYOMING

CITY           SKY/WX    TMP DP  RH WIND       PRES   REMARKS
BIG PINEY      MOCLDY    61  43  51 NW5       30.16F
6HR MIN TEMP:  58; 6HR MAX TEMP:  86;

PINEDALE       MOCLDY    61  46  59 CALM      30.17S
DUBOIS         MOCLDY    63  37  39 W8        30.15F
LANDER         FAIR      71  48  43 W9        30.03S
6HR MIN TEMP:  71; 6HR MAX TEMP:  93; 6HR PCP: TRACE;

RIVERTON       FAIR      72  50  45 NE12      30.02R
6HR MIN TEMP:  72; 6HR MAX TEMP:  93;

CASPER         FAIR      66  53  63 E8        30.02F
6HR MIN TEMP:  65; 6HR MAX TEMP:  79; 6HR PCP: TRACE;

DOUGLAS        FAIR      67  54  63 E9        30.02F
6HR MIN TEMP:  67; 6HR MAX TEMP:  84; 6HR PCP: TRACE;


$$
WYZ021-027>030-104>119-040700-
SOUTHERN WYOMING

CITY           SKY/WX    TMP DP  RH WIND       PRES   REMARKS
EVANSTON       FAIR      69  42  37 SE6       30.19S
6HR MIN TEMP:  68; 6HR MAX TEMP:  87;

KEMMERER       FAIR     N/A N/A N/A N5        30.20S
FORT BRIDGER   CLEAR     72  39  30 W8        30.20S
ROCK SPRINGS   FAIR      73  38  27 W5        30.13S
6HR MIN TEMP:  71; 6HR MAX TEMP:  87;

DIXON          FAIR      67  40  37 SE6       30.12S
RAWLINS        FAIR      66  50  56 NE10      30.11F
6HR MIN TEMP:  66; 6HR MAX TEMP:  86;

SARATOGA       FAIR      66  50  55 S12G18    30.13F
LARAMIE        FAIR      62  52  69 S10       30.18F
6HR MIN TEMP:  62; 6HR MAX TEMP:  77;

CHEYENNE       FAIR      63  54  72 SW5       30.14F
6HR MIN TEMP:  63; 6HR MAX TEMP:  75; 6HR PCP: TRACE;

TORRINGTON     FAIR      72  56  57 SE18      29.99R
6HR MIN TEMP:  72; 6HR MAX TEMP:  84;

PINE BLUFFS    FAIR      68  54  60 SE14      30.08F

$$


USA.gov is the U.S. government's official web portal to all federal, state and local government web resources and services.